This is the latest recevied weather packets stored in our database for station/object CE7LGA-10. If no packets are shown the sender has not sent any weather packets the latest 10 day(s).
| Time | Temp. | Humidity | Pressure | Rain* | Wind** | Luminosity | Snow |
|---|---|---|---|---|---|---|---|
| 1777533743 | 13.89° C | 67% | 1002.2 hPa | - | - | - | - |
| 1777532843 | 13.89° C | 67% | 1002.3 hPa | - | - | - | - |
| 1777531943 | 13.89° C | 67% | 1002.4 hPa | - | - | - | - |
| 1777531032 | 13.89° C | 67% | 1002.4 hPa | - | - | - | - |
| 1777530132 | 13.89° C | 67% | 1002.5 hPa | - | - | - | - |
| 1777529231 | 14.44° C | 67% | 1002.6 hPa | - | - | - | - |
| 1777528331 | 14.44° C | 67% | 1002.6 hPa | - | - | - | - |
| 1777527431 | 14.44° C | 67% | 1002.6 hPa | - | - | - | - |
| 1777526531 | 14.44° C | 67% | 1002.8 hPa | - | - | - | - |
| 1777525631 | 14.44° C | 67% | 1003 hPa | - | - | - | - |
| 1777524731 | 15° C | 66% | 1002.9 hPa | - | - | - | - |
| 1777523831 | 15° C | 66% | 1003.3 hPa | - | - | - | - |
| 1777522931 | 15° C | 67% | 1003.4 hPa | - | - | - | - |
| 1777522031 | 15.56° C | 67% | 1003.5 hPa | - | - | - | - |
| 1777521131 | 15.56° C | 66% | 1003.7 hPa | - | - | - | - |
| 1777520231 | 16.11° C | 67% | 1003.9 hPa | - | - | - | - |
| 1777519331 | 17.22° C | 67% | 1004.1 hPa | - | - | - | - |
| 1777518430 | 17.22° C | 67% | 1004.4 hPa | - | - | - | - |
| 1777517530 | 17.22° C | 68% | 1004.5 hPa | - | - | - | - |
| 1777516630 | 17.22° C | 69% | 1004.5 hPa | - | - | - | - |
| 1777515730 | 16.67° C | 69% | 1004.6 hPa | - | - | - | - |
| 1777514829 | 16.11° C | 68% | 1004.7 hPa | - | - | - | - |
| 1777513929 | 16.11° C | 68% | 1004.8 hPa | - | - | - | - |
| 1777513029 | 16.11° C | 69% | 1004.9 hPa | - | - | - | - |
| 1777512129 | 15.56° C | 69% | 1005.3 hPa | - | - | - | - |
* Rain since midnight (hover to see other rain measurements)
** Current wind speed in m/s (hover to see current wind gust speed)